Theta_e
309 309 310 310 310 310 310 310 310 310 310 311 312 312 313 313 313 309 310 315 318 312 312 315 318 312 313 311 304 309 306 307 305 302 302 298 295 296 296 299 298 298 295 294 293 290 290 307 306 298 300 298 298 298
309 309 309 309 309 310 309 309 309 309 310 310 311 312 313 313 313 312 312 319 323 319 317 319 318 323 319 318 314 313 310 311 309 304 301 298 299 298 296 294 304 297 299 296 296 295 304 306 302 303 300 298 298 298
309 309 309 309 309 309 309 309 309 310 310 310 311 312 312 313 313 312 307 308 323 316 314 315 312 318 323 322 321 311 314 318 317 315 307 305 299 300 295 296 300 304 304 300 300 301 302 302 300 300 301 299 300 300
308 309 309 309 309 309 309 309 309 309 309 310 310 311 312 313 312 313 308 312 319 317 310 312 319 314 322 322 322 320 317 317 313 310 307 303 301 302 298 300 299 302 301 300 298 299 301 302 300 301 301 301 301 302
308 308 308 309 309 309 308 308 308 309 309 310 311 312 312 312 311 310 308 309 314 315 309 309 313 315 314 320 320 319 315 311 309 306 304 303 302 302 302 300 296 300 298 294 293 300 300 300 301 302 300 300 300 300
307 308 308 309 308 308 308 308 308 309 310 310 311 312 311 311 311 312 313 315 311 316 310 304 311 313 312 312 314 308 308 308 305 306 304 304 305 301 297 295 302 304 302 301 299 301 301 301 302 303 301 301 301 300
307 307 308 308 308 308 308 308 309 309 310 310 310 310 310 310 308 317 314 316 313 318 310 305 306 311 313 310 310 310 309 307 306 304 303 303 304 301 297 296 303 306 308 306 303 301 299 302 300 303 302 303 304 302
304 305 306 307 307 307 307 308 308 309 309 309 309 309 310 309 309 311 316 310 312 315 311 304 305 308 311 306 306 308 307 308 308 306 307 305 303 300 297 301 305 308 309 308 303 303 302 302 302 302 302 301 301 300
304 305 306 307 307 307 307 307 308 309 309 309 309 310 310 309 309 313 316 314 317 309 305 304 302 300 309 306 306 306 306 305 309 305 306 303 300 297 302 304 306 308 308 306 304 303 303 302 303 302 301 301 299 299
304 305 307 307 307 307 307 308 308 308 309 309 310 309 306 313 317 317 313 307 311 311 307 302 304 306 307 304 301 304 306 306 300 303 304 299 298 304 306 308 309 309 309 310 302 302 302 302 303 302 303 304 302 302
305 306 306 307 307 307 307 308 308 308 310 309 310 310 312 313 313 310 306 304 304 304 304 304 302 301 305 302 299 301 299 304 299 300 300 295 295 302 307 308 307 306 306 306 307 306 305 305 305 303 305 305 303 304
305 306 306 306 307 307 307 307 307 307 306 305 306 307 310 307 302 302 299 303 302 301 303 302 303 304 305 304 302 303 300 302 299 305 299 294 299 303 306 308 309 307 306 306 307 307 308 308 307 306 304 304 303 304
305 306 306 306 306 307 307 308 308 307 306 309 307 304 302 301 294 298 297 299 299 302 301 301 300 302 304 304 301 301 299 300 306 300 296 296 301 305 306 308 308 307 306 307 307 308 309 310 310 307 306 306 305 304
305 305 305 306 306 307 308 307 307 307 310 309 300 292 297 297 299 299 301 301 303 301 300 299 298 299 300 302 301 301 301 303 298 293 295 300 303 304 306 309 308 306 306 307 307 307 310 309 308 308 308 307 307 307
305 305 305 306 307 307 306 307 307 307 313 303 302 293 298 299 300 301 301 301 302 301 301 300 297 298 299 301 303 301 299 297 295 295 299 303 304 305 307 308 308 306 306 306 306 306 307 307 306 305 306 306 307 306
305 305 308 306 305 306 306 308 309 316 308 304 301 299 299 300 299 300 300 299 301 302 302 300 297 298 299 300 299 298 296 295 296 299 303 303 305 306 308 309 308 308 307 307 307 306 306 305 305 305 305 306 305 306
304 305 307 305 305 305 306 314 314 306 304 302 299 300 299 300 300 300 300 299 301 303 300 301 298 297 300 298 297 298 298 300 300 302 303 305 306 307 308 308 308 308 308 306 304 303 304 305 304 305 305 306 306 307
301 304 306 305 304 304 315 313 312 306 301 301 299 299 299 301 301 300 301 301 301 302 301 300 302 297 294 294 294 297 299 301 301 301 301 303 307 308 310 308 309 307 304 304 303 303 304 304 303 302 303 305 305 304
302 302 304 304 303 310 309 307 310 302 300 300 299 300 299 299 299 300 301 302 302 303 302 299 297 294 295 297 297 298 298 298 300 300 302 303 304 305 306 305 305 302 301 301 301 300 301 302 301 301 302 303 301 302
303 304 305 305 306 308 305 304 308 304 301 302 301 301 300 300 300 301 302 300 301 301 299 298 297 298 298 299 300 300 300 301 301 301 301 302 302 302 301 300 300 301 301 302 303 299 302 303 302 301 300 300 300 299
307 308 306 307 310 305 303 302 302 301 300 300 300 299 300 302 302 301 298 300 302 300 298 299 298 300 302 302 301 302 303 303 302 302 301 301 301 301 300 300 300 300 300 301 300 300 299 300 300 301 301 300 300 300
305 307 308 310 302 302 301 301 300 301 302 302 300 300 300 299 298 298 298 301 301 301 302 301 302 302 302 302 302 302 303 304 305 303 298 298 300 300 299 299 298 297 297 298 298 299 300 301 301 300 300 300 298 298
306 307 307 304 301 295 296 302 302 302 299 298 299 298 299 298 299 302 299 299 300 300 299 300 302 302 302 303 305 305 305 303 301 301 301 299 299 299 298 298 297 297 295 296 298 298 298 295 297 297 297 298 297 296
304 303 300 300 298 295 303 300 301 299 299 297 297 296 297 297 300 299 296 297 299 299 299 301 302 302 303 304 303 300 299 300 299 299 299 300 299 299 299 298 297 298 297 297 297 297 297 296 293 295 296 295 294 293
293 294 297 290 299 299 299 298 298 298 296 297 296 296 296 298 298 297 296 298 298 298 299 301 303 304 303 300 299 300 301 298 297 296 297 298 298 298 297 297 298 299 300 298 296 296 296 296 296 296 295 294 293 293
289 297 294 297 296 297 296 296 296 295 296 296 296 296 296 298 298 296 298 299 298 300 301 301 301 298 296 297 295 295 297 299 299 298 298 299 297 295 294 293 292 294 298 298 296 295 295 295 294 293 293 293 289 290
291 295 297 300 298 298 296 297 297 297 296 294 294 294 294 296 295 296 300 300 298 299 299 300 298 296 295 295 297 297 297 297 296 295 298 298 297 296 295 292 291 293 294 294 294 293 293 292 291 292 291 290 289 289
297 297 295 297 297 297 295 296 296 296 296 297 295 293 293 294 290 297 298 298 298 298 297 297 297 297 297 296 296 295 295 295 295 295 294 296 296 294 294 293 293 288 291 291 291 291 290 289 288 287 287 287 288 288
295 297 297 295 296 297 297 297 297 298 299 296 293 293 293 294 295 295 296 298 299 297 295 294 295 297 296 296 296 296 294 291 289 286 284 284 286 288 289 288 287 287 287 286 285 285 286 285 285 285 286 286 287 287
298 298 296 297 296 294 296 298 298 299 298 299 297 295 293 294 295 298 297 296 295 295 295 295 295 294 292 290 289 291 293 291 290 288 285 284 285 287 286 284 284 284 284 284 284 284 283 284 284 284 284 284 284 284
299 298 296 296 296 297 298 298 298 298 298 298 296 292 291 293 294 295 295 296 296 295 293 290 291 291 291 289 289 288 286 290 289 289 289 287 286 285 284 284 284 284 284 284 283 283 282 282 282 282 283 282 283 283
297 295 294 293 294 297 298 296 295 295 295 296 297 297 297 294 290 292 294 295 294 292 288 291 291 291 292 292 291 291 286 288 287 287 286 285 284 284 283 283 283 284 283 283 282 282 282 282 281 282 281 281 281 282
294 294 294 294 294 294 296 297 295 295 296 296 297 295 293 291 288 293 297 296 294 293 292 293 293 293 291 289 288 287 286 286 285 283 283 282 282 282 282 283 283 283 282 281 281 281 281 280 280 280 279 279 280 280
Wind_Speed
8 9 10 11 11 13 14 16 16 16 16 16 16 14 11 9 6 2 4 5 3 2 3 5 6 4 2 2 2 3 4 4 3 4 3 3 2 1 3 1 0 3 3 1 3 1 1 4 2 3 5 1 1 1
9 10 10 11 12 13 15 17 16 17 17 16 16 14 11 9 6 3 3 1 2 2 4 4 6 5 5 7 6 0 6 2 2 4 1 2 2 2 2 2 3 2 4 4 5 5 3 3 2 1 3 4 3 2
8 10 10 11 12 13 16 17 17 17 17 15 15 14 12 9 6 5 3 3 2 2 4 3 1 2 3 4 4 4 2 1 0 2 5 2 4 3 2 2 2 3 2 3 2 2 3 2 1 2 2 2 3 3
9 9 10 12 13 14 17 17 17 17 18 15 14 13 11 8 5 6 3 1 2 2 3 6 2 2 3 5 2 3 5 4 4 2 3 2 3 1 2 3 3 2 3 1 1 3 3 2 2 2 2 5 5 4
7 9 11 12 13 16 18 18 18 17 18 16 13 12 11 8 5 4 3 3 2 4 4 4 5 2 1 5 6 5 4 3 2 3 4 2 1 3 2 2 3 1 4 3 3 4 3 6 3 4 6 5 7 6
8 10 12 13 15 17 19 19 18 18 18 16 13 12 10 7 4 3 4 1 4 3 4 1 4 4 2 4 5 3 3 3 3 4 2 1 1 4 4 2 3 2 2 5 3 4 4 4 4 4 5 8 8 8
10 11 13 14 17 19 19 18 18 18 17 15 14 12 9 6 3 3 5 2 5 2 3 3 5 3 2 3 3 2 2 2 4 2 4 2 3 4 3 3 3 4 4 3 4 5 0 3 6 8 7 5 3 7
11 13 15 16 18 19 19 19 19 18 17 16 15 11 7 6 9 3 2 9 2 4 3 3 4 3 4 2 2 3 2 3 5 3 2 2 2 3 3 3 5 5 6 3 7 7 5 4 4 8 5 2 6 8
12 14 17 17 18 19 19 18 18 18 18 17 13 5 2 3 1 2 5 10 2 3 3 2 3 4 3 1 0 3 2 4 2 3 3 4 3 3 4 3 5 4 4 4 6 5 6 6 8 6 6 6 8 10
13 15 16 18 19 20 19 17 17 18 19 12 1 3 1 3 3 7 4 3 4 4 4 2 0 1 3 3 2 2 3 2 3 2 2 4 1 3 4 5 6 6 6 2 2 7 5 7 6 9 8 9 7 10
13 16 19 20 19 19 17 15 16 18 2 1 2 2 3 4 3 4 1 2 1 2 1 1 2 1 3 2 2 1 3 1 3 4 4 0 2 4 3 4 1 2 0 1 4 6 7 7 6 4 6 6 7 8
16 19 20 18 17 16 14 12 13 4 1 0 1 0 2 5 4 3 1 2 2 3 2 2 1 2 2 2 3 1 3 2 2 2 3 1 4 4 3 3 3 3 5 6 5 7 7 6 5 3 5 6 6 6
19 19 16 15 15 14 13 11 8 5 1 1 2 3 5 2 7 3 3 2 1 1 2 2 2 0 3 4 3 3 3 2 3 3 2 5 3 3 5 4 5 3 3 5 7 6 7 6 5 2 4 4 4 5
18 17 17 15 13 12 13 10 5 5 2 3 3 5 3 2 0 4 4 4 4 2 1 2 1 2 1 3 1 4 2 3 2 2 3 3 5 4 5 4 2 6 5 7 8 7 7 6 7 6 6 5 4 5
18 19 17 10 8 11 12 7 7 3 2 3 3 2 1 1 1 1 1 1 1 2 2 2 3 2 2 3 3 3 3 2 2 3 4 4 5 4 3 3 6 7 6 7 6 6 8 7 6 7 6 5 3 4
19 18 2 4 11 13 8 6 4 1 3 3 4 4 1 4 2 2 1 1 0 2 2 3 2 3 2 2 4 2 4 3 3 4 4 2 3 5 5 6 7 6 6 7 7 7 8 8 7 7 3 1 3 4
13 3 1 11 15 15 5 2 2 3 3 3 1 2 3 2 3 2 2 2 1 3 2 2 3 1 1 4 2 2 4 4 3 3 2 4 6 7 7 6 7 6 7 7 6 7 7 6 5 3 2 1 3 1
4 5 12 11 11 5 2 1 3 4 4 1 4 2 1 1 3 2 2 1 2 3 3 2 4 4 3 3 3 4 3 2 3 3 3 4 5 7 5 7 7 6 7 6 5 4 4 5 5 3 4 5 3 4
7 11 21 16 4 1 3 4 4 3 1 1 1 1 1 1 1 0 0 0 1 2 5 3 4 2 3 4 4 3 3 4 4 2 3 4 5 6 7 5 5 4 5 4 5 4 4 5 3 3 3 3 1 3
12 12 11 3 3 3 4 3 3 4 2 2 2 1 2 1 1 1 1 2 2 2 5 2 3 3 4 2 3 2 0 2 2 3 4 3 3 5 6 4 4 4 4 4 4 5 3 3 3 3 3 3 3 4
5 3 3 1 3 5 4 1 3 2 2 3 0 1 1 2 3 3 3 3 5 3 2 1 1 2 2 2 2 2 2 1 1 2 3 3 3 2 3 4 5 4 4 4 4 4 4 3 3 4 4 5 3 4
3 7 2 3 5 4 4 1 3 1 3 2 2 2 2 2 2 3 1 6 3 2 2 2 1 2 4 5 4 5 3 3 3 2 3 1 1 2 3 3 3 4 4 3 3 4 5 5 5 5 5 6 6 5
4 5 4 5 4 5 3 2 3 3 3 0 2 3 3 2 1 2 4 1 2 2 2 2 2 4 6 4 6 8 9 7 5 5 5 4 3 4 4 4 3 4 4 4 4 5 5 7 6 6 6 6 5 6
2 4 4 3 3 1 2 3 2 3 2 3 2 2 2 1 2 5 3 3 3 4 4 5 4 4 3 7 8 7 7 4 4 5 7 4 4 4 4 3 3 4 4 5 7 7 7 7 8 7 7 8 9 9
6 6 5 5 1 3 4 3 3 4 2 2 3 3 2 2 4 4 3 4 5 5 5 4 6 8 7 5 6 7 11 7 4 4 7 6 6 7 8 9 9 9 8 9 10 12 11 10 12 11 12 11 12 13
6 4 4 2 2 3 1 3 3 2 2 3 3 2 3 4 5 4 4 9 6 8 9 8 5 8 11 9 9 10 11 10 10 10 9 9 10 11 10 10 11 10 10 11 13 15 14 12 13 17 15 14 12 14
5 4 3 1 2 3 4 2 2 5 5 3 2 4 4 5 5 4 4 9 6 8 10 11 11 11 10 10 10 10 10 11 10 7 8 8 7 6 6 10 13 11 13 15 14 16 17 16 16 16 15 14 14 14
1 2 4 4 4 3 3 3 3 2 1 0 3 6 5 6 5 5 6 7 6 7 9 10 10 10 10 10 9 9 9 9 10 7 7 4 6 7 9 8 9 15 12 12 14 15 16 16 17 18 18 18 16 14
3 3 2 5 4 5 4 3 1 1 1 3 5 5 5 5 5 5 5 6 6 8 11 11 10 8 8 7 7 7 9 9 15 20 20 14 13 11 11 11 12 12 12 13 17 15 18 18 18 17 20 17 15 14
4 2 4 4 5 4 3 0 1 3 5 6 8 8 7 5 7 7 7 7 9 10 9 8 8 10 11 10 9 10 7 7 8 9 12 14 13 11 9 11 12 12 11 12 13 14 17 16 16 14 15 13 12 13
2 3 4 4 3 2 2 3 2 4 5 7 10 12 9 7 6 10 10 9 7 8 10 10 8 7 8 9 9 10 10 9 12 14 12 11 11 10 13 13 13 13 13 15 16 16 18 18 14 15 15 18 19 16
5 5 3 3 1 4 5 4 2 4 5 4 6 6 5 5 5 3 7 7 6 7 8 6 8 8 9 8 7 8 7 10 10 11 16 12 8 13 13 13 12 13 14 15 14 15 18 19 17 18 16 19 21 22
4 4 4 3 5 5 3 3 1 4 6 4 5 7 7 5 6 5 3 6 6 7 9 8 7 6 8 10 11 10 11 9 12 11 13 14 12 13 11 10 11 13 15 14 14 16 19 21 18 18 18 18 18 18
Wind_Direction
269 281 291 300 303 306 310 309 309 312 313 313 312 318 322 315 305 188 272 196 131 172 255 176 165 146 132 211 120 245 54 334 21 77 130 227 148 187 79 75 134 153 125 135 82 55 330 2 335 55 213 196 190 167
269 281 292 302 300 305 308 305 307 311 311 308 308 317 322 312 295 196 272 244 145 189 237 219 219 206 199 183 149 261 172 187 169 89 55 135 93 56 124 196 20 60 164 177 153 213 252 298 325 40 169 172 206 192
277 287 295 298 299 304 303 303 308 308 304 305 305 313 317 303 286 215 263 296 78 42 323 25 314 359 124 183 186 104 315 197 327 164 169 137 102 125 130 234 111 13 110 95 86 314 311 321 22 43 211 127 111 122
277 290 297 299 302 304 301 302 303 304 301 302 301 308 308 299 286 216 233 208 117 100 102 283 332 259 121 132 102 113 140 74 96 101 111 117 108 147 179 160 109 218 38 127 350 330 341 39 350 194 129 110 128 167
290 302 299 301 305 302 300 299 302 303 297 295 303 308 305 299 268 222 247 231 228 140 195 271 309 273 156 156 151 115 110 124 133 62 53 76 131 98 11 80 33 339 168 117 208 231 172 258 233 192 150 171 186 172
309 301 300 304 305 300 297 297 303 298 292 297 305 305 299 286 223 226 11 211 206 180 100 7 289 314 29 80 82 88 82 78 82 111 128 100 42 97 92 108 267 272 217 187 203 191 204 282 236 213 196 206 211 210
306 303 302 307 301 295 295 302 302 295 293 301 303 300 287 243 210 167 187 239 152 128 88 352 334 312 335 76 44 58 49 91 90 83 51 90 17 75 93 137 257 301 313 274 195 138 243 223 231 224 231 278 295 254
306 307 307 300 294 295 301 303 298 293 302 305 301 292 263 221 275 313 316 204 69 95 75 119 269 9 360 21 1 358 59 49 13 134 53 43 357 40 70 262 280 288 300 236 207 224 211 255 242 245 217 213 250 260
301 302 296 293 296 300 300 300 297 306 309 306 298 259 154 228 120 241 87 118 186 136 143 100 153 230 6 62 57 22 55 59 289 64 31 66 349 45 241 284 309 297 290 309 341 276 275 242 246 248 214 238 237 253
300 293 295 300 301 301 302 300 304 313 310 313 183 96 320 237 340 112 13 33 23 348 46 139 349 211 81 19 14 67 17 115 72 324 47 63 249 267 270 270 275 279 270 225 268 293 270 256 252 262 226 239 233 268
299 305 302 298 298 299 299 304 316 322 323 88 100 180 253 315 73 36 70 94 320 23 350 218 179 122 337 98 200 106 159 86 96 257 112 88 264 238 240 271 285 32 97 208 234 273 269 248 275 278 284 260 260 258
307 294 289 290 292 293 300 314 324 348 61 167 156 223 337 42 44 108 324 340 57 199 295 133 257 177 312 90 100 231 106 77 131 138 84 242 255 246 255 286 297 347 359 344 331 312 319 329 272 269 287 290 283 289
287 285 284 290 303 300 302 306 307 253 113 221 65 62 65 313 52 151 167 336 10 257 297 6 351 55 11 51 67 81 82 95 84 54 230 232 258 249 234 265 282 329 314 312 309 301 294 279 289 322 282 276 325 325
289 298 310 308 298 291 296 300 293 141 233 87 95 16 115 310 242 190 173 178 228 146 152 107 359 56 335 55 140 77 9 80 89 60 263 247 225 223 219 246 337 295 305 301 295 293 284 279 277 280 271 264 266 278
315 310 309 287 264 296 308 310 175 187 128 92 91 131 168 178 30 275 213 65 339 112 91 47 40 77 8 84 35 98 82 346 173 215 239 244 231 220 247 264 268 270 278 281 281 284 281 282 278 281 283 287 288 300
320 315 217 354 330 325 327 128 177 191 58 84 77 83 13 70 344 14 11 329 8 100 77 60 92 64 43 97 65 44 100 212 249 224 241 266 231 238 245 256 269 279 273 278 277 268 272 270 254 255 273 177 243 228
325 242 18 354 337 321 162 175 114 62 89 77 32 70 120 110 170 220 176 254 166 86 157 104 76 95 93 56 84 184 184 214 231 287 266 241 246 254 260 273 268 272 285 280 279 281 276 283 278 266 236 226 269 219
237 291 319 341 344 308 137 72 84 75 76 98 104 213 164 128 140 245 238 213 115 127 121 138 123 70 121 141 260 241 241 272 235 238 257 273 275 279 268 269 286 276 283 305 315 335 5 42 51 22 15 354 357 12
267 297 298 310 297 11 71 24 59 94 129 176 90 65 96 174 242 275 225 68 100 117 104 58 82 141 212 214 192 203 215 203 211 259 278 309 333 318 314 325 316 22 42 30 30 41 39 44 67 52 28 16 331 313
280 273 288 292 193 75 62 7 55 94 117 224 77 84 141 163 273 34 36 49 83 76 49 68 192 213 188 224 193 205 60 72 55 334 303 336 356 7 25 43 53 39 38 23 32 29 13 18 14 356 343 330 335 333
344 323 297 254 47 62 98 86 44 135 140 92 224 88 318 14 37 27 19 347 57 44 6 271 37 14 85 72 87 115 96 136 291 191 265 308 351 44 47 39 41 33 31 14 5 349 6 335 307 315 315 310 301 286
297 333 346 2 64 23 70 340 139 180 81 134 64 64 58 51 27 10 301 48 40 319 341 334 54 89 77 51 37 52 52 55 45 46 34 74 349 23 35 17 29 24 19 4 347 329 317 314 317 315 315 310 305 305
324 14 34 29 75 47 263 50 74 18 98 331 42 68 21 48 23 5 66 35 300 323 304 20 53 56 85 59 50 37 23 24 23 16 9 22 37 36 34 23 15 9 352 341 333 329 326 323 326 328 319 313 313 311
359 50 52 52 84 211 351 35 52 68 69 55 73 88 56 60 16 57 59 12 324 337 18 16 17 38 48 58 39 28 1 4 31 31 16 13 17 17 13 0 339 335 336 336 342 331 324 319 318 317 313 311 312 312
64 334 78 345 5 63 42 32 25 57 62 28 70 31 357 34 69 54 51 336 348 358 351 13 52 30 43 51 29 22 16 14 17 32 16 12 18 16 15 12 8 3 349 343 334 324 316 315 312 306 302 298 300 297
68 333 77 8 1 84 26 70 51 58 64 69 31 323 37 70 62 51 41 354 347 6 357 358 54 71 56 44 41 27 17 18 25 32 26 20 26 11 0 356 345 339 337 331 325 315 310 309 310 304 295 300 306 306
52 352 330 336 123 104 58 46 65 73 55 49 355 30 54 66 60 46 11 17 14 18 29 42 54 59 56 46 41 35 28 25 30 12 351 2 3 354 338 341 335 331 332 324 322 321 318 317 314 314 312 304 310 308
141 32 65 321 48 22 97 61 58 62 70 197 66 38 59 40 49 5 24 4 19 40 52 50 51 52 50 42 33 25 23 16 357 340 341 339 2 360 347 337 330 324 325 331 333 331 327 324 321 316 312 307 304 300
35 339 75 32 49 44 43 71 88 265 165 79 79 59 73 59 11 25 14 33 44 50 50 43 35 34 35 31 26 23 25 359 2 2 358 348 343 350 353 351 342 335 328 325 324 321 322 320 316 314 311 307 305 305
354 6 79 46 63 46 322 60 49 59 46 79 98 104 90 78 41 29 41 40 38 40 39 36 25 24 30 19 360 4 13 7 2 351 341 341 335 334 342 332 330 328 325 318 321 322 320 318 317 317 317 317 316 314
338 50 67 57 74 330 320 314 22 91 82 63 82 119 118 142 94 39 26 25 33 36 43 34 23 13 18 17 3 352 348 357 346 344 346 334 333 341 338 337 334 333 330 329 326 325 325 321 320 328 325 332 324 327
32 31 78 77 350 321 15 36 356 70 96 93 121 130 132 98 83 60 19 9 19 51 32 9 17 11 6 356 349 347 343 338 341 346 349 345 343 347 343 336 335 335 337 341 338 337 339 344 339 341 344 348 352 345
38 34 47 54 9 1 329 15 18 78 82 97 89 80 64 68 82 37 5 23 16 26 11 17 5 354 350 355 4 359 351 348 347 345 350 342 339 334 333 337 338 337 334 334 334 334 337 339 341 346 339 335 335 338